Weather History for Scottsbluff, NE

Change the Weather History Date:

Saturday, March 9, 2013

  Actual Average Record
Temperature  
Mean Temperature 36 °F 36 °F  
Max Temperature 43 °F 51 °F 75 °F (1972)
Min Temperature 28 °F 22 °F -8 °F (1912)
Degree Days  
Heating Degree Days 29 29  
Month to date heating degree days 242 269  
Since 1 July heating degree days 4763 5181  
Cooling Degree Days 0 0  
Month to date cooling degree days 0 0  
Year to date cooling degree days 0 0  
Moisture  
Dew Point 27 °F    
Average Humidity 66    
Maximum Humidity 92    
Minimum Humidity 40    
Precipitation  
Precipitation 0.13 in 0.03 in 0.38 in (1992)
Month to date precipitation 0.13 0.24  
Year to date precipitation 0.67 1.25  
Snow  
Snow 1.20 in 0.30 in 3.70 in (1992)
Month to date snowfall 1.2 2.2  
Since 1 July snowfall 22.2 30.6  
Snow Depth 1.00 in    
Sea Level Pressure  
Sea Level Pressure 29.84 in    
Wind  
Wind Speed 14 mph (North)    
Max Wind Speed 29 mph    
Max Gust Speed 38 mph    
Visibility 6 miles    
Events Snow    
T = Trace of Precipitation, MM = Missing Value Source: NWS Daily Summary

Daily Weather History Graph

Daily Weather History Graph

Search for Another Location

Airport:

Trip Planner

Search our weather history database for the weather conditions in past years. The results will help you decide how hot, cold, wet, or windy it might be!

Date:

Astronomy

Mar. 09, 2013 Rise Set
Actual Time 6:15 AM MST 5:54 PM MST
Civil Twilight 5:48 AM MST 6:22 PM MST
Nautical Twilight 5:15 AM MST 6:54 PM MST
Astronomical Twilight 4:43 AM MST 7:27 PM MST
Moon 4:42 AM MST (3/9) 3:57 PM MST (3/9)
Length of Visible Light 12h 34m
Length of Day
11h 38m
Waning Crescent, 5% of the Moon is Illuminated
Mar 9
Waning Crescent
Mar 11
New
Mar 19
First Quarter
Mar 27
Full
Apr 2
Last Quarter

Hourly Weather History & Observations

Time (MST) Temp. Windchill Dew Point Humidity Pressure Visibility Wind Dir Wind Speed Gust Speed Precip Events Conditions
12:53 AM 33.1 °F 28.7 °F 28.0 °F 82% 29.73 in 9.0 mi NNE 4.6 mph - N/A   Overcast
1:53 AM 33.1 °F 25.5 °F 28.0 °F 82% 29.71 in 8.0 mi NNW 9.2 mph - N/A   Mostly Cloudy
2:53 AM 32.0 °F 28.7 °F 28.0 °F 85% 29.70 in 8.0 mi NW 3.5 mph - N/A   Mostly Cloudy
3:53 AM 32.0 °F 26.4 °F 28.0 °F 85% 29.70 in 8.0 mi WNW 5.8 mph - N/A   Mostly Cloudy
4:45 AM 33.8 °F 30.8 °F 28.4 °F 81% 29.71 in 8.0 mi NNE 3.5 mph - N/A   Overcast
4:53 AM 33.1 °F 26.1 °F 28.0 °F 82% 29.72 in 8.0 mi North 8.1 mph - N/A   Overcast
5:10 AM 33.8 °F 26.4 °F 28.4 °F 81% 29.71 in 8.0 mi North 9.2 mph - N/A   Overcast
5:53 AM 33.1 °F 23.9 °F 27.0 °F 78% 29.73 in 6.0 mi North 12.7 mph 21.9 mph N/A   Haze
6:20 AM 32.0 °F 24.2 °F 28.4 °F 87% 29.72 in 4.0 mi North 9.2 mph - 0.00 in Snow Light Snow
6:53 AM 33.1 °F 24.9 °F 28.9 °F 85% 29.76 in 5.0 mi North 10.4 mph - 0.00 in Snow Light Snow
7:21 AM 33.8 °F 26.4 °F 28.4 °F 81% 29.75 in 5.0 mi NNW 9.2 mph - 0.00 in   Overcast
7:49 AM 33.8 °F 25.3 °F 28.4 °F 81% 29.75 in 2.0 mi NNW 11.5 mph - 0.01 in Snow Light Snow
7:53 AM 33.1 °F 24.4 °F 28.9 °F 85% 29.79 in 1.8 mi NNW 11.5 mph - 0.01 in Snow Light Snow
8:28 AM 33.8 °F 24.3 °F 30.2 °F 87% 29.76 in 2.5 mi North 13.8 mph - 0.02 in Snow Light Snow
8:53 AM 32.0 °F 22.5 °F 28.9 °F 88% 29.80 in 3.0 mi North 12.7 mph - 0.02 in Snow Light Snow
8:58 AM 32.0 °F 21.6 °F 28.4 °F 87% 29.76 in 3.0 mi North 15.0 mph - 0.00 in   Overcast
9:09 AM 32.0 °F 23.6 °F 28.4 °F 87% 29.77 in 1.8 mi North 10.4 mph - 0.00 in Snow Light Snow
9:23 AM 32.0 °F 22.5 °F 28.4 °F 87% 29.77 in 1.2 mi North 12.7 mph - 0.01 in Snow Light Snow
9:39 AM 32.0 °F 20.5 °F 28.4 °F 87% 29.77 in 2.5 mi North 18.4 mph 25.3 mph 0.01 in Snow Light Snow
9:53 AM 32.0 °F 20.8 °F 28.0 °F 85% 29.82 in 2.0 mi North 17.3 mph 24.2 mph 0.01 in Snow Light Snow
10:03 AM 32.0 °F 21.2 °F 28.4 °F 87% 29.77 in 1.8 mi North 16.1 mph 29.9 mph 0.00 in Snow Light Snow
10:24 AM 30.2 °F 18.9 °F 28.4 °F 93% 29.78 in 0.8 mi North 16.1 mph 25.3 mph 0.01 in Snow Light Snow
10:39 AM 32.0 °F 21.2 °F 28.4 °F 87% 29.79 in 0.8 mi NNW 16.1 mph 25.3 mph 0.01 in Snow Light Snow
10:53 AM 30.9 °F 20.2 °F 28.9 °F 92% 29.85 in 0.8 mi NNW 15.0 mph 25.3 mph 0.02 in Snow Light Snow
11:00 AM 32.0 °F 20.8 °F 28.4 °F 87% 29.80 in 1.0 mi NNW 17.3 mph - 0.00 in Snow Light Snow
11:09 AM 32.0 °F 21.6 °F 30.2 °F 93% 29.80 in 0.8 mi NNW 15.0 mph - 0.00 in Snow Light Snow
11:31 AM 32.0 °F 21.6 °F 30.2 °F 93% 29.80 in 1.2 mi NNW 15.0 mph 20.7 mph 0.01 in Snow Light Snow
11:48 AM 33.8 °F 23.9 °F 30.2 °F 87% 29.80 in 3.0 mi NNW 15.0 mph - 0.01 in Snow Light Snow
11:53 AM 33.1 °F 23.4 °F 30.0 °F 89% 29.86 in 3.0 mi North 13.8 mph - 0.01 in Snow Light Snow
12:53 PM 36.0 °F 27.5 °F 30.0 °F 79% 29.84 in 10.0 mi NNW 12.7 mph - 0.00 in   Overcast
1:53 PM 37.9 °F 29.6 °F 30.9 °F 76% 29.84 in 10.0 mi North 13.8 mph - N/A   Overcast
2:53 PM 42.1 °F 33.3 °F 30.0 °F 62% 29.85 in 10.0 mi North 19.6 mph 26.5 mph N/A   Scattered Clouds
3:53 PM 39.9 °F 30.5 °F 27.0 °F 60% 29.88 in 10.0 mi NNE 19.6 mph 34.5 mph N/A   Mostly Cloudy
4:53 PM 39.9 °F 30.5 °F 24.1 °F 53% 29.91 in 10.0 mi North 19.6 mph 26.5 mph N/A   Overcast
5:53 PM 39.0 °F 28.8 °F 21.0 °F 49% 29.96 in 10.0 mi North 21.9 mph 26.5 mph N/A   Overcast
6:53 PM 37.0 °F 25.4 °F 17.1 °F 44% 30.02 in 10.0 mi North 25.3 mph 34.5 mph N/A   Overcast
7:53 PM 35.1 °F 23.3 °F 14.0 °F 42% 30.06 in 10.0 mi North 23.0 mph 33.4 mph N/A   Mostly Cloudy
8:53 PM 32.0 °F 20.5 °F 16.0 °F 52% 30.11 in 10.0 mi North 18.4 mph - N/A   Clear
9:53 PM 28.9 °F 17.3 °F 17.1 °F 61% 30.14 in 10.0 mi North 16.1 mph - N/A   Partly Cloudy
10:53 PM 28.9 °F 18.6 °F 18.0 °F 64% 30.15 in 10.0 mi North 12.7 mph - N/A   Mostly Cloudy
11:53 PM 28.9 °F 19.8 °F 19.0 °F 67% 30.14 in 10.0 mi North 10.4 mph - N/A   Overcast